Year,Month,Day,Hour,Minute,Value (Times are PST for barometer in hPa)
2016,03,05,00,00,997.36
2016,03,05,00,01,997.31
2016,03,05,00,02,997.27
2016,03,05,00,03,997.22
2016,03,05,00,04,997.15
2016,03,05,00,05,997.10
2016,03,05,00,06,997.09
2016,03,05,00,07,997.07
2016,03,05,00,08,997.09
2016,03,05,00,09,997.10
2016,03,05,00,10,997.05
2016,03,05,00,11,997.00
2016,03,05,00,12,996.99
2016,03,05,00,13,996.97
2016,03,05,00,14,996.93
2016,03,05,00,15,996.88
2016,03,05,00,16,996.85
2016,03,05,00,17,996.78
2016,03,05,00,18,996.75
2016,03,05,00,19,996.72
2016,03,05,00,20,996.66
2016,03,05,00,21,996.65
2016,03,05,00,22,996.71
2016,03,05,00,23,996.73
2016,03,05,00,24,996.70
2016,03,05,00,25,996.68
2016,03,05,00,26,996.66
2016,03,05,00,27,996.65
2016,03,05,00,28,996.61
2016,03,05,00,29,996.54
2016,03,05,00,30,996.49
2016,03,05,00,31,996.52
2016,03,05,00,32,996.53
2016,03,05,00,33,996.53
2016,03,05,00,34,996.57
2016,03,05,00,35,996.56
2016,03,05,00,36,996.51
2016,03,05,00,37,996.46
2016,03,05,00,38,996.41
2016,03,05,00,39,996.36
2016,03,05,00,40,996.28
2016,03,05,00,41,996.28
2016,03,05,00,42,996.33
2016,03,05,00,43,996.28
2016,03,05,00,44,996.22
2016,03,05,00,45,996.19
2016,03,05,00,46,996.15
2016,03,05,00,47,996.14
2016,03,05,00,48,996.12
2016,03,05,00,49,996.09
2016,03,05,00,50,996.09
2016,03,05,00,51,996.07
2016,03,05,00,52,996.04
2016,03,05,00,53,995.96
2016,03,05,00,54,995.94
2016,03,05,00,55,995.91
2016,03,05,00,56,995.87
2016,03,05,00,57,995.87
2016,03,05,00,58,995.87
2016,03,05,00,59,995.87
2016,03,05,01,00,995.93
2016,03,05,01,01,995.97
2016,03,05,01,02,995.93
2016,03,05,01,03,995.86
2016,03,05,01,04,995.84
2016,03,05,01,05,995.82
2016,03,05,01,06,995.78
2016,03,05,01,07,995.73
2016,03,05,01,08,995.72
2016,03,05,01,09,995.73
2016,03,05,01,10,995.69
2016,03,05,01,11,995.63
2016,03,05,01,12,995.64
2016,03,05,01,13,995.65
2016,03,05,01,14,995.61
2016,03,05,01,15,995.58
2016,03,05,01,16,995.58
2016,03,05,01,17,995.58
2016,03,05,01,18,995.58
2016,03,05,01,19,995.62
2016,03,05,01,20,995.57
2016,03,05,01,21,995.55
2016,03,05,01,22,995.52
2016,03,05,01,23,995.50
2016,03,05,01,24,995.48
2016,03,05,01,25,995.44
2016,03,05,01,26,995.43
2016,03,05,01,27,995.43
2016,03,05,01,28,995.39
2016,03,05,01,29,995.42
2016,03,05,01,30,995.43
2016,03,05,01,31,995.38
2016,03,05,01,32,995.38
2016,03,05,01,33,995.36
2016,03,05,01,34,995.31
2016,03,05,01,35,995.27
2016,03,05,01,36,995.20
2016,03,05,01,37,995.16
2016,03,05,01,38,995.14
2016,03,05,01,39,995.04
2016,03,05,01,40,994.99
2016,03,05,01,41,994.97
2016,03,05,01,42,994.94
2016,03,05,01,43,994.88
2016,03,05,01,44,994.85
2016,03,05,01,45,994.87
2016,03,05,01,46,994.81
2016,03,05,01,47,994.77
2016,03,05,01,48,994.75
2016,03,05,01,49,994.85
2016,03,05,01,50,994.94
2016,03,05,01,51,994.94
2016,03,05,01,52,994.92
2016,03,05,01,53,994.85
2016,03,05,01,54,994.78
2016,03,05,01,55,994.77
2016,03,05,01,56,994.77
2016,03,05,01,57,994.69
2016,03,05,01,58,994.67
2016,03,05,01,59,994.66
2016,03,05,02,00,994.63
2016,03,05,02,01,994.60
2016,03,05,02,02,994.56
2016,03,05,02,03,994.47
2016,03,05,02,04,994.41
2016,03,05,02,05,994.41
2016,03,05,02,06,994.35
2016,03,05,02,07,994.29
2016,03,05,02,08,994.30
2016,03,05,02,09,994.35
2016,03,05,02,10,994.36
2016,03,05,02,11,994.41
2016,03,05,02,12,994.39
2016,03,05,02,13,994.35
2016,03,05,02,14,994.33
2016,03,05,02,15,994.31
2016,03,05,02,16,994.21
2016,03,05,02,17,994.18
2016,03,05,02,18,994.21
2016,03,05,02,19,994.21
2016,03,05,02,20,994.25
2016,03,05,02,21,994.26
2016,03,05,02,22,994.21
2016,03,05,02,23,994.14
2016,03,05,02,24,994.05
2016,03,05,02,25,993.97
2016,03,05,02,26,993.96
2016,03,05,02,27,993.95
2016,03,05,02,28,993.90
2016,03,05,02,29,993.96
2016,03,05,02,30,994.02
2016,03,05,02,31,993.97
2016,03,05,02,32,993.94
2016,03,05,02,33,993.92
2016,03,05,02,34,993.91
2016,03,05,02,35,993.83
2016,03,05,02,36,993.79
2016,03,05,02,37,993.74
2016,03,05,02,38,993.78
2016,03,05,02,39,993.82
2016,03,05,02,40,993.77
2016,03,05,02,41,993.74
2016,03,05,02,42,993.77
2016,03,05,02,43,993.82
2016,03,05,02,44,993.82
2016,03,05,02,45,993.82
2016,03,05,02,46,993.86
2016,03,05,02,47,993.85
2016,03,05,02,48,993.84
2016,03,05,02,49,993.86
2016,03,05,02,50,993.83
2016,03,05,02,51,993.82
2016,03,05,02,52,993.88
2016,03,05,02,53,993.91
2016,03,05,02,54,993.94
2016,03,05,02,55,993.97
2016,03,05,02,56,993.99
2016,03,05,02,57,993.97
2016,03,05,02,58,994.00
2016,03,05,02,59,994.04
2016,03,05,03,00,994.06
2016,03,05,03,01,994.09
2016,03,05,03,02,994.11
2016,03,05,03,03,994.13
2016,03,05,03,04,994.18
2016,03,05,03,05,994.23
2016,03,05,03,06,994.26
2016,03,05,03,07,994.34
2016,03,05,03,08,994.42
2016,03,05,03,09,994.45
2016,03,05,03,10,994.54
2016,03,05,03,11,994.64
2016,03,05,03,12,994.69
2016,03,05,03,13,994.74
2016,03,05,03,14,994.75
2016,03,05,03,15,994.81
2016,03,05,03,16,994.87
2016,03,05,03,17,994.87
2016,03,05,03,18,994.85
2016,03,05,03,19,994.85
2016,03,05,03,20,994.89
2016,03,05,03,21,994.94
2016,03,05,03,22,994.96
2016,03,05,03,23,994.92
2016,03,05,03,24,994.89
2016,03,05,03,25,994.87
2016,03,05,03,26,994.83
2016,03,05,03,27,994.82
2016,03,05,03,28,994.76
2016,03,05,03,29,994.63
2016,03,05,03,30,994.55
2016,03,05,03,31,994.57
2016,03,05,03,32,994.64
2016,03,05,03,33,994.70
2016,03,05,03,34,994.70
2016,03,05,03,35,994.66
2016,03,05,03,36,994.67
2016,03,05,03,37,994.66
2016,03,05,03,38,994.67
2016,03,05,03,39,994.66
2016,03,05,03,40,994.65
2016,03,05,03,41,994.67
2016,03,05,03,42,994.74
2016,03,05,03,43,994.82
2016,03,05,03,44,994.85
2016,03,05,03,45,994.85
2016,03,05,03,46,994.87
2016,03,05,03,47,994.91
2016,03,05,03,48,994.94
2016,03,05,03,49,995.03
2016,03,05,03,50,995.11
2016,03,05,03,51,995.14
2016,03,05,03,52,995.12
2016,03,05,03,53,995.07
2016,03,05,03,54,995.04
2016,03,05,03,55,995.02
2016,03,05,03,56,995.08
2016,03,05,03,57,995.16
2016,03,05,03,58,995.19
2016,03,05,03,59,995.23
2016,03,05,04,00,995.26
2016,03,05,04,01,995.26
2016,03,05,04,02,995.24
2016,03,05,04,03,995.23
2016,03,05,04,05,995.29
2016,03,05,04,06,995.32
2016,03,05,04,07,995.35
2016,03,05,04,08,995.39
2016,03,05,04,09,995.44
2016,03,05,04,10,995.46
2016,03,05,04,11,995.46
2016,03,05,04,12,995.51
2016,03,05,04,13,995.62
2016,03,05,04,14,995.64
2016,03,05,04,15,995.61
2016,03,05,04,16,995.60
2016,03,05,04,17,995.58
2016,03,05,04,18,995.56
2016,03,05,04,19,995.59
2016,03,05,04,20,995.57
2016,03,05,04,21,995.56
2016,03,05,04,22,995.63
2016,03,05,04,23,995.64
2016,03,05,04,24,995.61
2016,03,05,04,25,995.58
2016,03,05,04,26,995.56
2016,03,05,04,27,995.61
2016,03,05,04,28,995.70
2016,03,05,04,29,995.71
2016,03,05,04,30,995.70
2016,03,05,04,31,995.72
2016,03,05,04,32,995.73
2016,03,05,04,33,995.77
2016,03,05,04,34,995.83
2016,03,05,04,35,995.82
2016,03,05,04,36,995.78
2016,03,05,04,37,995.77
2016,03,05,04,38,995.77
2016,03,05,04,39,995.84
2016,03,05,04,40,995.85
2016,03,05,04,41,995.81
2016,03,05,04,42,995.80
2016,03,05,04,43,995.78
2016,03,05,04,44,995.77
2016,03,05,04,45,995.79
2016,03,05,04,46,995.78
2016,03,05,04,47,995.77
2016,03,05,04,48,995.82
2016,03,05,04,49,995.91
2016,03,05,04,50,995.94
2016,03,05,04,51,995.96
2016,03,05,04,52,996.02
2016,03,05,04,53,996.06
2016,03,05,04,54,996.05
2016,03,05,04,55,996.00
2016,03,05,04,56,995.95
2016,03,05,04,57,995.98
2016,03,05,04,58,996.07
2016,03,05,04,59,996.11
2016,03,05,05,00,996.02
2016,03,05,05,01,996.03
2016,03,05,05,02,996.01
2016,03,05,05,03,996.06
2016,03,05,05,04,996.15
2016,03,05,05,05,996.13
2016,03,05,05,06,996.09
2016,03,05,05,07,996.11
2016,03,05,05,08,996.14
2016,03,05,05,09,996.18
2016,03,05,05,10,996.23
2016,03,05,05,11,996.22
2016,03,05,05,12,996.15
2016,03,05,05,13,996.13
2016,03,05,05,14,996.20
2016,03,05,05,15,996.29
2016,03,05,05,16,996.36
2016,03,05,05,17,996.38
2016,03,05,05,18,996.43
2016,03,05,05,19,996.47
2016,03,05,05,20,996.48
2016,03,05,05,21,996.53
2016,03,05,05,22,996.57
2016,03,05,05,23,996.58
2016,03,05,05,24,996.53
2016,03,05,05,25,996.56
2016,03,05,05,26,996.58
2016,03,05,05,27,996.60
2016,03,05,05,28,996.57
2016,03,05,05,29,996.55
2016,03,05,05,30,996.57
2016,03,05,05,31,996.60
2016,03,05,05,32,996.68
2016,03,05,05,33,996.72
2016,03,05,05,34,996.72
2016,03,05,05,35,996.69
2016,03,05,05,36,996.68
2016,03,05,05,37,996.73
2016,03,05,05,38,996.75
2016,03,05,05,39,996.82
2016,03,05,05,40,996.88
2016,03,05,05,41,996.89
2016,03,05,05,42,996.91
2016,03,05,05,43,996.92
2016,03,05,05,44,996.94
2016,03,05,05,45,996.98
2016,03,05,05,46,997.01
2016,03,05,05,47,997.04
2016,03,05,05,48,997.03
2016,03,05,05,49,997.00
2016,03,05,05,50,996.96
2016,03,05,05,51,996.98
2016,03,05,05,52,996.96
2016,03,05,05,53,996.98
2016,03,05,05,54,996.99
2016,03,05,05,55,997.03
2016,03,05,05,56,997.08
2016,03,05,05,57,997.13
2016,03,05,05,58,997.18
2016,03,05,05,59,997.15
2016,03,05,06,00,997.12
2016,03,05,06,01,997.15
2016,03,05,06,02,997.16
2016,03,05,06,03,997.16
2016,03,05,06,04,997.18
2016,03,05,06,05,997.19
2016,03,05,06,06,997.19
2016,03,05,06,07,997.19
2016,03,05,06,08,997.19
2016,03,05,06,09,997.25
2016,03,05,06,10,997.27
2016,03,05,06,11,997.30
2016,03,05,06,12,997.35
2016,03,05,06,13,997.32
2016,03,05,06,14,997.35
2016,03,05,06,15,997.37
2016,03,05,06,16,997.38
2016,03,05,06,17,997.39
2016,03,05,06,18,997.37
2016,03,05,06,19,997.38
2016,03,05,06,20,997.43
2016,03,05,06,21,997.44
2016,03,05,06,22,997.45
2016,03,05,06,23,997.44
2016,03,05,06,24,997.45
2016,03,05,06,25,997.46
2016,03,05,06,26,997.46
2016,03,05,06,27,997.51
2016,03,05,06,28,997.55
2016,03,05,06,29,997.59
2016,03,05,06,30,997.62
2016,03,05,06,31,997.70
2016,03,05,06,32,997.78
2016,03,05,06,33,997.84
2016,03,05,06,34,997.83
2016,03,05,06,35,997.80
2016,03,05,06,36,997.78
2016,03,05,06,37,997.83
2016,03,05,06,38,997.89
2016,03,05,06,39,997.88
2016,03,05,06,40,997.91
2016,03,05,06,41,997.90
2016,03,05,06,42,997.84
2016,03,05,06,43,997.87
2016,03,05,06,44,997.92
2016,03,05,06,45,997.94
2016,03,05,06,46,997.91
2016,03,05,06,47,997.92
2016,03,05,06,48,997.96
2016,03,05,06,49,997.99
2016,03,05,06,50,998.03
2016,03,05,06,51,998.02
2016,03,05,06,52,998.05
2016,03,05,06,53,998.09
2016,03,05,06,54,998.15
2016,03,05,06,55,998.22
2016,03,05,06,56,998.26
2016,03,05,06,57,998.30
2016,03,05,06,58,998.33
2016,03,05,06,59,998.37
2016,03,05,07,00,998.42
2016,03,05,07,01,998.44
2016,03,05,07,02,998.42
2016,03,05,07,03,998.39
2016,03,05,07,04,998.40
2016,03,05,07,05,998.41
2016,03,05,07,06,998.41
2016,03,05,07,07,998.43
2016,03,05,07,08,998.53
2016,03,05,07,09,998.55
2016,03,05,07,10,998.57
2016,03,05,07,11,998.63
2016,03,05,07,12,998.65
2016,03,05,07,13,998.65
2016,03,05,07,14,998.67
2016,03,05,07,15,998.68
2016,03,05,07,16,998.72
2016,03,05,07,17,998.79
2016,03,05,07,18,998.78
2016,03,05,07,19,998.77
2016,03,05,07,20,998.81
2016,03,05,07,21,998.79
2016,03,05,07,22,998.83
2016,03,05,07,23,998.87
2016,03,05,07,24,998.88
2016,03,05,07,25,998.91
2016,03,05,07,26,998.90
2016,03,05,07,27,998.92
2016,03,05,07,28,998.95
2016,03,05,07,29,999.01
2016,03,05,07,30,999.05
2016,03,05,07,31,999.05
2016,03,05,07,32,999.05
2016,03,05,07,33,999.08
2016,03,05,07,34,999.05
2016,03,05,07,35,999.02
2016,03,05,07,36,999.04
2016,03,05,07,37,999.09
2016,03,05,07,38,999.14
2016,03,05,07,39,999.22
2016,03,05,07,40,999.26
2016,03,05,07,41,999.22
2016,03,05,07,42,999.19
2016,03,05,07,43,999.15
2016,03,05,07,44,999.14
2016,03,05,07,45,999.17
2016,03,05,07,46,999.21
2016,03,05,07,47,999.24
2016,03,05,07,48,999.23
2016,03,05,07,49,999.31
2016,03,05,07,50,999.36
2016,03,05,07,51,999.40
2016,03,05,07,52,999.47
2016,03,05,07,53,999.53
2016,03,05,07,54,999.54
2016,03,05,07,55,999.53
2016,03,05,07,56,999.59
2016,03,05,07,57,999.69
2016,03,05,07,58,999.73
2016,03,05,07,59,999.73
2016,03,05,08,00,999.75
2016,03,05,08,01,999.78
2016,03,05,08,02,999.82
2016,03,05,08,03,999.81
2016,03,05,08,04,999.80
2016,03,05,08,05,999.84
2016,03,05,08,06,999.89
2016,03,05,08,07,999.90
2016,03,05,08,08,999.92
2016,03,05,08,09,999.91
2016,03,05,08,10,999.90
2016,03,05,08,11,999.96
2016,03,05,08,12,1000.02
2016,03,05,08,13,1000.03
2016,03,05,08,14,1000.07
2016,03,05,08,15,1000.08
2016,03,05,08,16,1000.04
2016,03,05,08,17,1000.01
2016,03,05,08,18,1000.06
2016,03,05,08,19,1000.10
2016,03,05,08,20,1000.10
2016,03,05,08,21,1000.12
2016,03,05,08,22,1000.11
2016,03,05,08,23,1000.08
2016,03,05,08,24,1000.11
2016,03,05,08,25,1000.14
2016,03,05,08,26,1000.16
2016,03,05,08,27,1000.19
2016,03,05,08,28,1000.16
2016,03,05,08,29,1000.18
2016,03,05,08,30,1000.27
2016,03,05,08,31,1000.27
2016,03,05,08,32,1000.32
2016,03,05,08,33,1000.35
2016,03,05,08,34,1000.36
2016,03,05,08,35,1000.40
2016,03,05,08,36,1000.41
2016,03,05,08,37,1000.45
2016,03,05,08,38,1000.48
2016,03,05,08,39,1000.52
2016,03,05,08,40,1000.54
2016,03,05,08,41,1000.57
2016,03,05,08,42,1000.60
2016,03,05,08,43,1000.63
2016,03,05,08,44,1000.64
2016,03,05,08,45,1000.67
2016,03,05,08,46,1000.70
2016,03,05,08,47,1000.69
2016,03,05,08,48,1000.70
2016,03,05,08,49,1000.71
2016,03,05,08,50,1000.71
2016,03,05,08,51,1000.74
2016,03,05,08,52,1000.75
2016,03,05,08,53,1000.72
2016,03,05,08,54,1000.71
2016,03,05,08,55,1000.74
2016,03,05,08,56,1000.75
2016,03,05,08,57,1000.79
2016,03,05,08,58,1000.77
2016,03,05,08,59,1000.77
2016,03,05,09,00,1000.78
2016,03,05,09,01,1000.80
2016,03,05,09,02,1000.84
2016,03,05,09,03,1000.81
2016,03,05,09,04,1000.74
2016,03,05,09,05,1000.74
2016,03,05,09,06,1000.72
2016,03,05,09,07,1000.74
2016,03,05,09,08,1000.72
2016,03,05,09,09,1000.74
2016,03,05,09,10,1000.71
2016,03,05,09,11,1000.70
2016,03,05,09,12,1000.67
2016,03,05,09,13,1000.67
2016,03,05,09,14,1000.68
2016,03,05,09,15,1000.70
2016,03,05,09,16,1000.74
2016,03,05,09,17,1000.72
2016,03,05,09,18,1000.71
2016,03,05,09,19,1000.74
2016,03,05,09,20,1000.75
2016,03,05,09,21,1000.75
2016,03,05,09,22,1000.77
2016,03,05,09,23,1000.76
2016,03,05,09,24,1000.75
2016,03,05,09,25,1000.75
2016,03,05,09,26,1000.77
2016,03,05,09,27,1000.80
2016,03,05,09,28,1000.81
2016,03,05,09,29,1000.84
2016,03,05,09,30,1000.85
2016,03,05,09,31,1000.85
2016,03,05,09,32,1000.87
2016,03,05,09,33,1000.92
2016,03,05,09,34,1000.93
2016,03,05,09,35,1000.94
2016,03,05,09,36,1000.97
2016,03,05,09,37,1001.04
2016,03,05,09,38,1001.08
2016,03,05,09,39,1001.06
2016,03,05,09,40,1001.01
2016,03,05,09,41,1001.01
2016,03,05,09,42,1001.04
2016,03,05,09,43,1001.09
2016,03,05,09,44,1001.12
2016,03,05,09,45,1001.14
2016,03,05,09,46,1001.15
2016,03,05,09,47,1001.18
2016,03,05,09,48,1001.19
2016,03,05,09,49,1001.19
2016,03,05,09,50,1001.21
2016,03,05,09,51,1001.20
2016,03,05,09,52,1001.15
2016,03,05,09,53,1001.12
2016,03,05,09,54,1001.14
2016,03,05,09,55,1001.19
2016,03,05,09,56,1001.22
2016,03,05,09,57,1001.22
2016,03,05,09,58,1001.22
2016,03,05,09,59,1001.22
2016,03,05,10,00,1001.22
2016,03,05,10,01,1001.20
2016,03,05,10,02,1001.21
2016,03,05,10,03,1001.24
2016,03,05,10,04,1001.23
2016,03,05,10,05,1001.24
2016,03,05,10,06,1001.21
2016,03,05,10,07,1001.19
2016,03,05,10,08,1001.17
2016,03,05,10,09,1001.13
2016,03,05,10,10,1001.12
2016,03,05,10,11,1001.08
2016,03,05,10,12,1001.05
2016,03,05,10,13,1001.05
2016,03,05,10,14,1001.05
2016,03,05,10,15,1001.03
2016,03,05,10,16,1001.02
2016,03,05,10,17,1000.99
2016,03,05,10,18,1000.96
2016,03,05,10,19,1000.95
2016,03,05,10,20,1000.89
2016,03,05,10,21,1000.81
2016,03,05,10,22,1000.80
2016,03,05,10,23,1000.81
2016,03,05,10,24,1000.81
2016,03,05,10,25,1000.79
2016,03,05,10,26,1000.80
2016,03,05,10,27,1000.81
2016,03,05,10,28,1000.77
2016,03,05,10,29,1000.75
2016,03,05,10,30,1000.75
2016,03,05,10,31,1000.75
2016,03,05,10,32,1000.73
2016,03,05,10,33,1000.69
2016,03,05,10,34,1000.68
2016,03,05,10,35,1000.64
2016,03,05,10,36,1000.65
2016,03,05,10,37,1000.64
2016,03,05,10,38,1000.65
2016,03,05,10,39,1000.68
2016,03,05,10,40,1000.68
2016,03,05,10,41,1000.68
2016,03,05,10,42,1000.66
2016,03,05,10,43,1000.66
2016,03,05,10,44,1000.64
2016,03,05,10,45,1000.59
2016,03,05,10,46,1000.62
2016,03,05,10,47,1000.66
2016,03,05,10,48,1000.66
2016,03,05,10,49,1000.62
2016,03,05,10,50,1000.61
2016,03,05,10,51,1000.63
2016,03,05,10,52,1000.66
2016,03,05,10,53,1000.70
2016,03,05,10,54,1000.71
2016,03,05,10,55,1000.71
2016,03,05,10,56,1000.73
2016,03,05,10,57,1000.73
2016,03,05,10,58,1000.71
2016,03,05,10,59,1000.71
2016,03,05,11,00,1000.69
2016,03,05,11,01,1000.65
2016,03,05,11,02,1000.64
2016,03,05,11,03,1000.68
2016,03,05,11,04,1000.71
2016,03,05,11,05,1000.74
2016,03,05,11,06,1000.71
2016,03,05,11,07,1000.70
2016,03,05,11,08,1000.71
2016,03,05,11,09,1000.74
2016,03,05,11,10,1000.72
2016,03,05,11,11,1000.71
2016,03,05,11,12,1000.69
2016,03,05,11,13,1000.72
2016,03,05,11,14,1000.75
2016,03,05,11,15,1000.75
2016,03,05,11,16,1000.77
2016,03,05,11,17,1000.78
2016,03,05,11,18,1000.76
2016,03,05,11,19,1000.81
2016,03,05,11,20,1000.81
2016,03,05,11,21,1000.80
2016,03,05,11,22,1000.81
2016,03,05,11,23,1000.88
2016,03,05,11,24,1000.92
2016,03,05,11,25,1000.96
2016,03,05,11,26,1001.00
2016,03,05,11,27,1001.02
2016,03,05,11,28,1001.02
2016,03,05,11,29,1001.06
2016,03,05,11,30,1001.06
2016,03,05,11,31,1001.05
2016,03,05,11,32,1001.07
2016,03,05,11,33,1001.08
2016,03,05,11,34,1001.08
2016,03,05,11,35,1001.10
2016,03,05,11,36,1001.14
2016,03,05,11,37,1001.21
2016,03,05,11,38,1001.25
2016,03,05,11,39,1001.32
2016,03,05,11,40,1001.32
2016,03,05,11,41,1001.31
2016,03,05,11,42,1001.34
2016,03,05,11,43,1001.36
2016,03,05,11,44,1001.38
2016,03,05,11,45,1001.41
2016,03,05,11,46,1001.40
2016,03,05,11,47,1001.43
2016,03,05,11,48,1001.46
2016,03,05,11,49,1001.48
2016,03,05,11,50,1001.53
2016,03,05,11,51,1001.53
2016,03,05,11,52,1001.55
2016,03,05,11,53,1001.56
2016,03,05,11,54,1001.58
2016,03,05,11,55,1001.59
2016,03,05,11,56,1001.61
2016,03,05,11,57,1001.63
2016,03,05,11,58,1001.65
2016,03,05,11,59,1001.66
2016,03,05,12,00,1001.68
2016,03,05,12,01,1001.69
2016,03,05,12,02,1001.67
2016,03,05,12,03,1001.70
2016,03,05,12,04,1001.73
2016,03,05,12,05,1001.73
2016,03,05,12,06,1001.75
2016,03,05,12,07,1001.78
2016,03,05,12,08,1001.82
2016,03,05,12,09,1001.83
2016,03,05,12,10,1001.79
2016,03,05,12,11,1001.72
2016,03,05,12,12,1001.67
2016,03,05,12,13,1001.64
2016,03,05,12,14,1001.63
2016,03,05,12,15,1001.60
2016,03,05,12,16,1001.57
2016,03,05,12,17,1001.54
2016,03,05,12,18,1001.50
2016,03,05,12,19,1001.49
2016,03,05,12,20,1001.53
2016,03,05,12,21,1001.58
2016,03,05,12,22,1001.59
2016,03,05,12,23,1001.57
2016,03,05,12,24,1001.58
2016,03,05,12,25,1001.55
2016,03,05,12,26,1001.56
2016,03,05,12,27,1001.55
2016,03,05,12,28,1001.52
2016,03,05,12,29,1001.54
2016,03,05,12,30,1001.56
2016,03,05,12,31,1001.52
2016,03,05,12,32,1001.51
2016,03,05,12,33,1001.54
2016,03,05,12,34,1001.56
2016,03,05,12,35,1001.58
2016,03,05,12,36,1001.55
2016,03,05,12,37,1001.59
2016,03,05,12,38,1001.61
2016,03,05,12,39,1001.57
2016,03,05,12,40,1001.56
2016,03,05,12,41,1001.56
2016,03,05,12,42,1001.58
2016,03,05,12,43,1001.61
2016,03,05,12,44,1001.63
2016,03,05,12,45,1001.63
2016,03,05,12,46,1001.65
2016,03,05,12,47,1001.66
2016,03,05,12,48,1001.68
2016,03,05,12,49,1001.73
2016,03,05,12,50,1001.76
2016,03,05,12,51,1001.76
2016,03,05,12,52,1001.80
2016,03,05,12,53,1001.85
2016,03,05,12,54,1001.86
2016,03,05,12,55,1001.86
2016,03,05,12,56,1001.86
2016,03,05,12,57,1001.86
2016,03,05,12,58,1001.84
2016,03,05,12,59,1001.81
2016,03,05,13,00,1001.73
2016,03,05,13,01,1001.65
2016,03,05,13,02,1001.56
2016,03,05,13,03,1001.52
2016,03,05,13,04,1001.52
2016,03,05,13,05,1001.48
2016,03,05,13,06,1001.46
2016,03,05,13,07,1001.42
2016,03,05,13,08,1001.29
2016,03,05,13,09,1001.22
2016,03,05,13,10,1001.28
2016,03,05,13,11,1001.32
2016,03,05,13,12,1001.34
2016,03,05,13,13,1001.34
2016,03,05,13,14,1001.32
2016,03,05,13,15,1001.28
2016,03,05,13,16,1001.25
2016,03,05,13,17,1001.32
2016,03,05,13,18,1001.28
2016,03,05,13,19,1001.28
2016,03,05,13,20,1001.26
2016,03,05,13,21,1001.24
2016,03,05,13,22,1001.23
2016,03,05,13,23,1001.22
2016,03,05,13,24,1001.20
2016,03,05,13,25,1001.19
2016,03,05,13,26,1001.15
2016,03,05,13,27,1001.12
2016,03,05,13,28,1001.12
2016,03,05,13,29,1001.08
2016,03,05,13,30,1001.03
2016,03,05,13,31,1001.00
2016,03,05,13,32,1000.98
2016,03,05,13,33,1000.98
2016,03,05,13,34,1000.96
2016,03,05,13,35,1000.95
2016,03,05,13,36,1000.93
2016,03,05,13,37,1000.94
2016,03,05,13,38,1000.93
2016,03,05,13,39,1000.90
2016,03,05,13,40,1000.90
2016,03,05,13,41,1000.90
2016,03,05,13,42,1000.86
2016,03,05,13,43,1000.87
2016,03,05,13,44,1000.90
2016,03,05,13,45,1000.92
2016,03,05,13,46,1000.95
2016,03,05,13,47,1000.95
2016,03,05,13,48,1000.92
2016,03,05,13,49,1000.92
2016,03,05,13,50,1000.90
2016,03,05,13,51,1000.86
2016,03,05,13,52,1000.87
2016,03,05,13,53,1000.88
2016,03,05,13,54,1000.88
2016,03,05,13,55,1000.88
2016,03,05,13,56,1000.86
2016,03,05,13,57,1000.87
2016,03,05,13,58,1000.84
2016,03,05,13,59,1000.79
2016,03,05,14,00,1000.84
2016,03,05,14,01,1000.80
2016,03,05,14,02,1000.75
2016,03,05,14,03,1000.75
2016,03,05,14,04,1000.75
2016,03,05,14,05,1000.73
2016,03,05,14,06,1000.71
2016,03,05,14,07,1000.71
2016,03,05,14,08,1000.73
2016,03,05,14,09,1000.75
2016,03,05,14,10,1000.75
2016,03,05,14,11,1000.73
2016,03,05,14,12,1000.67
2016,03,05,14,13,1000.64
2016,03,05,14,14,1000.66
2016,03,05,14,15,1000.66
2016,03,05,14,16,1000.60
2016,03,05,14,17,1000.58
2016,03,05,14,18,1000.56
2016,03,05,14,19,1000.52
2016,03,05,14,20,1000.49
2016,03,05,14,21,1000.48
2016,03,05,14,22,1000.46
2016,03,05,14,23,1000.46
2016,03,05,14,24,1000.46
2016,03,05,14,25,1000.44
2016,03,05,14,26,1000.44
2016,03,05,14,27,1000.46
2016,03,05,14,28,1000.46
2016,03,05,14,29,1000.46
2016,03,05,14,30,1000.48
2016,03,05,14,31,1000.48
2016,03,05,14,32,1000.46
2016,03,05,14,33,1000.40
2016,03,05,14,34,1000.39
2016,03,05,14,35,1000.39
2016,03,05,14,36,1000.37
2016,03,05,14,37,1000.35
2016,03,05,14,38,1000.36
2016,03,05,14,39,1000.29
2016,03,05,14,40,1000.26
2016,03,05,14,41,1000.25
2016,03,05,14,42,1000.22
2016,03,05,14,43,1000.22
2016,03,05,14,44,1000.22
2016,03,05,14,45,1000.20
2016,03,05,14,46,1000.16
2016,03,05,14,47,1000.18
2016,03,05,14,48,1000.14
2016,03,05,14,49,1000.12
2016,03,05,14,50,1000.12
2016,03,05,14,51,1000.08
2016,03,05,14,52,1000.05
2016,03,05,14,53,1000.00
2016,03,05,14,54,999.93
2016,03,05,14,55,999.88
2016,03,05,14,56,999.85
2016,03,05,14,57,999.81
2016,03,05,14,58,999.80
2016,03,05,14,59,999.78
2016,03,05,15,00,999.74
2016,03,05,15,01,999.71
2016,03,05,15,02,999.70
2016,03,05,15,03,999.64
2016,03,05,15,04,999.59
2016,03,05,15,05,999.57
2016,03,05,15,06,999.54
2016,03,05,15,07,999.49
2016,03,05,15,08,999.38
2016,03,05,15,09,999.28
2016,03,05,15,10,999.26
2016,03,05,15,11,999.26
2016,03,05,15,12,999.20
2016,03,05,15,13,999.15
2016,03,05,15,14,999.12
2016,03,05,15,15,999.05
2016,03,05,15,16,999.02
2016,03,05,15,17,998.94
2016,03,05,15,18,998.86
2016,03,05,15,19,998.83
2016,03,05,15,20,998.78
2016,03,05,15,21,998.71
2016,03,05,15,22,998.66
2016,03,05,15,23,998.61
2016,03,05,15,24,998.50
2016,03,05,15,25,998.44
2016,03,05,15,26,998.42
2016,03,05,15,27,998.39
2016,03,05,15,28,998.36
2016,03,05,15,29,998.34
2016,03,05,15,30,998.34
2016,03,05,15,31,998.34
2016,03,05,15,32,998.34
2016,03,05,15,33,998.32
2016,03,05,15,34,998.25
2016,03,05,15,35,998.21
2016,03,05,15,36,998.19
2016,03,05,15,37,998.15
2016,03,05,15,38,998.08
2016,03,05,15,39,998.02
2016,03,05,15,40,997.96
2016,03,05,15,41,997.90
2016,03,05,15,42,997.89
2016,03,05,15,43,997.88
2016,03,05,15,44,997.85
2016,03,05,15,45,997.85
2016,03,05,15,46,997.83
2016,03,05,15,47,997.82
2016,03,05,15,48,997.77
2016,03,05,15,49,997.73
2016,03,05,15,50,997.71
2016,03,05,15,51,997.72
2016,03,05,15,52,997.73
2016,03,05,15,53,997.71
2016,03,05,15,54,997.70
2016,03,05,15,55,997.72
2016,03,05,15,56,997.73
2016,03,05,15,57,997.69
2016,03,05,15,58,997.66
2016,03,05,15,59,997.66
2016,03,05,16,00,997.64
2016,03,05,16,01,997.65
2016,03,05,16,02,997.64
2016,03,05,16,03,997.65
2016,03,05,16,04,997.66
2016,03,05,16,05,997.66
2016,03,05,16,06,997.66
2016,03,05,16,07,997.64
2016,03,05,16,08,997.65
2016,03,05,16,09,997.64
2016,03,05,16,10,997.63
2016,03,05,16,11,997.61
2016,03,05,16,12,997.56
2016,03,05,16,13,997.51
2016,03,05,16,14,997.48
2016,03,05,16,15,997.39
2016,03,05,16,16,997.31
2016,03,05,16,17,997.25
2016,03,05,16,18,997.22
2016,03,05,16,19,997.19
2016,03,05,16,20,997.18